SCP
-0 -0 -0 -0 -0 -0 -0 0 0 0 0 0 0 0 0 0 0 0 -0 -0 0 0 0 0 0 0 0 0 0 0 0 0 0 0 0 0 0 0 0 0 0 0 0 0
0 -0 -0 -0 -0 -0 0 0 0 0 0 0 0 0 0 0 0 0 0 0 0 0 0 0 0 0 0 0 0 0 0 0 0 0 0 0 0 0 0 0 0 0 0 0
0 0 -0 -0 -0 -0 -0 0 0 0 0 0 0 0 0 0 0 0 0 0 0 0 0 0 0 0 0 0 0 0 0 0 0 0 0 0 0 0 0 0 0 0 0 0
0 0 0 -0 -0 -0 -0 0 0 0 0 0 0 0 0 0 0 0 0 0 0 0 0 0 0 0 0 0 0 0 0 0 0 0 0 0 0 0 0 0 0 0 -0 0
0 0 0 0 -0 -0 0 0 0 0 0 0 0 0 0 0 0 0 0 0 0 0 0 0 0 0 0 0 0 0 0 0 0 0 0 0 0 0 0 0 0 0 0 0
0 0 0 0 0 0 0 0 0 0 0 0 0 0 0 0 0 0 0 0 0 0 0 0 0 0 0 0 0 0 0 0 0 0 0 0 0 0 0 0 0 0 0 0
0 0 0 0 0 0 0 0 0 0 0 0 0 0 0 0 0 0 0 0 0 0 0 0 0 0 0 0 0 0 0 0 0 0 0 0 0 0 0 0 0 0 0 0
0 0 0 0 0 0 0 0 0 0 0 0 0 0 0 0 0 0 0 0 0 0 0 0 0 0 0 0 0 0 0 0 0 0 0 0 0 0 0 0 0 0 0 0
0 0 0 0 0 0 0 0 0 0 0 0 0 0 0 0 0 0 0 0 0 0 0 0 0 0 0 0 0 0 0 0 0 0 0 -0 0 0 0 0 0 0 0 0
0 0 0 0 0 0 0 0 0 0 0 0 0 0 0 0 0 0 0 0 0 0 0 0 0 0 0 0 0 0 0 0 0 0 0 0 0 0 0 0 -0 0 0 0
0 0 0 0 0 0 0 0 0 -0 0 0 0 0 0 0 0 0 0 0 0 0 0 0 0 0 0 0 0 0 0 0 0 0 0 -0 -0 0 -0 0 0 0 0 0
0 0 0 0 0 0 0 0 0 0 0 0 0 0 0 0 0 0 0 0 0 0 0 0 0 0 0 0 0 0 0 0 0 0 -0 -0 -0 0 -0 0 0 0 0 0
0 0 0 0 0 0 0 0 0 -0 -0 0 0 0 0 0 0 0 0 0 0 0 0 0 0 0 0 0 0 0 0 0 0 0 0 0 0 0 -0 0 0 0 0 0
0 0 0 0 0 0 0 0 0 0 0 0 0 0 0 0 0 0 0 0 0 0 0 0 0 0 0 0 0 0 0 0 0 0 0 0 0 0 0 0 0 0 0 0
0 0 0 0 0 0 0 0 0 0 0 0 0 0 0 0 0 0 0 0 0 0 0 0 0 0 0 0 0 0 0 0 0 0 0 0 0 0 0 0 0 0 0 0
0 0 0 0 0 0 0 0 0 0 0 0 -0 0 0 0 -0 0 0 0 -0 0 0 0 0 0 0 0 0 0 0 0 0 0 0 0 0 0 0 0 0 0 0 0
0 0 0 0 0 0 0 0 0 0 0 0 0 0 0 0 0 0 0 0 0 0 0 0 0 0 0 0 0 0 0 0 0 0 0 0 0 0 0 0 0 0 0 0
0 0 0 0 0 0 0 0 0 0 0 0 0 0 0 0 0 0 0 0 0 0 0 0 0 0 0 0 0 0 0 0 0 -0 0 0 0 0 0 0 0 0 0 0
0 0 0 0 0 0 0 0 0 0 0 0 0 0 0 0 0 0 0 0 0 0 0 0 0 0 0 0 0 0 0 0 0 0 0 0 0 0 0 0 0 0 0 0
0 0 0 0 0 0 0 0 0 0 0 0 0 0 0 0 0 0 0 0 0 0 0 0 0 0 0 0 0 0 0 0 0 0 0 0 0 0 0 0 0 0 0 0
0 0 0 0 0 0 0 0 0 0 0 0 0 0 0 0 0 0 0 0 0 0 0 0 0 0 0 0 0 0 0 0 0 0 0 0 0 0 0 0 0 0 0 0
0 0 0 0 0 0 0 0 0 0 0 0 0 0 0 0 0 0 0 0 0 0 0 0 0 0 0 0 0 0 0 0 0 0 0 0 0 0 0 0 0 0 0 0
0 0 0 0 0 0 0 0 0 0 0 0 0 0 0 0 0 0 0 0 0 0 0 0 0 0 0 0 0 0 0 0 0 0 0 0 0 0 0 0 0 0 0 0
0 0 0 0 0 0 0 0 0 0 0 0 0 0 0 0 0 0 0 0 0 0 0 0 0 0 0 0 0 0 0 0 0 0 0 0 0 0 0 0 0 0 0 0
0 0 0 0 0 0 0 0 0 0 0 0 0 0 0 0 0 0 0 0 0 0 0 0 0 0 0 0 0 0 0 0 0 0 0 0 0 0 0 0 0 0 0 0
0 0 0 0 0 0 0 0 0 0 0 0 0 0 0 0 0 0 0 0 0 0 0 0 0 0 0 0 0 0 0 0 0 0 0 0 0 0 0 0 0 0 0 0
0 0 0 0 0 0 0 0 0 0 0 0 0 0 0 0 0 0 0 0 0 0 0 0 0 0 0 0 0 -0 0 0 0 0 0 0 0 0 0 0 0 0 0 0
Wind_Speed_500mb
40 44 49 58 65 66 57 14 5 10 21 5 4 3 7 11 20 43 18 11 10 4 4 1 5 3 7 21 6 3 6 7 7 16 5 10 6 7 9 8 7 4 5 13
38 41 44 51 60 66 56 27 8 13 13 4 6 12 11 14 10 12 3 11 9 8 9 8 5 3 8 10 1 10 6 1 5 17 11 2 7 9 6 11 7 11 8 11
36 38 41 46 54 53 36 13 6 8 5 6 5 7 9 11 19 7 15 6 7 9 9 10 4 4 6 5 4 5 9 8 15 14 14 6 8 11 12 11 7 8 12 12
33 35 37 43 48 42 24 14 5 8 7 8 11 5 4 8 10 10 16 10 9 8 6 5 4 7 5 7 2 7 4 10 10 10 13 11 10 13 15 16 11 10 10 15
29 31 34 38 44 39 16 12 11 12 9 20 11 2 5 7 11 11 8 13 3 9 7 9 10 5 3 5 5 5 7 6 6 8 8 8 11 13 20 21 18 12 10 18
25 27 30 35 38 41 17 25 8 8 9 10 5 5 7 9 16 16 12 19 8 10 3 2 7 12 18 9 6 5 6 7 7 10 8 13 5 11 10 4 5 7 6 4
22 23 25 30 34 38 35 29 17 6 7 3 5 7 14 13 12 7 6 11 9 2 28 34 23 27 20 16 12 7 2 4 3 8 10 5 3 9 9 4 7 6 7 5
20 20 21 24 28 33 36 25 7 5 7 8 13 26 12 10 17 15 11 12 7 17 6 7 8 10 12 9 7 10 3 5 2 4 6 10 2 11 11 12 11 20 6 9
19 19 19 21 24 28 32 12 9 9 8 9 5 13 12 4 6 7 7 1 13 2 8 8 5 1 4 9 13 7 9 4 2 2 5 7 9 2 5 9 15 33 11 14
21 19 18 19 22 25 30 6 9 12 12 15 7 1 7 8 8 4 9 10 9 12 5 5 5 5 3 6 7 6 5 6 2 3 3 11 9 11 11 9 11 11 10 15
23 20 19 18 20 25 24 13 3 20 13 46 39 22 13 18 11 1 11 6 10 8 7 5 4 5 7 3 5 1 2 2 3 2 4 5 9 7 1 5 5 6 8 9
25 22 19 19 19 25 27 19 23 27 30 36 46 58 48 50 47 34 8 3 6 8 7 1 5 5 3 4 5 3 2 9 5 10 8 7 15 5 5 4 8 7 8 6
26 24 21 21 21 27 31 34 31 28 22 50 35 17 9 11 16 18 12 10 7 7 9 13 5 7 8 7 8 4 5 7 6 0 3 13 20 13 10 19 9 10 12 13
28 26 24 23 25 28 34 40 37 34 14 11 14 11 24 16 23 28 40 20 11 10 12 8 5 5 9 4 6 5 5 2 5 6 4 6 21 29 32 33 17 13 10 13
28 28 26 26 28 31 35 44 48 35 27 9 28 58 24 9 17 30 36 33 30 17 7 6 6 11 8 1 3 3 6 4 2 3 17 20 15 27 16 17 16 19 22 30
29 29 28 28 30 30 33 14 8 20 33 8 8 20 25 22 22 24 41 42 31 28 9 6 4 1 4 6 3 4 15 5 4 7 10 23 16 16 14 22 25 16 17 28
29 30 30 30 33 32 27 11 8 12 21 6 14 15 10 11 17 21 35 28 13 8 0 5 8 4 7 5 4 9 4 6 5 7 4 11 18 23 25 23 21 21 22 22
30 31 32 33 36 41 46 32 34 39 19 11 6 10 13 2 4 9 12 11 9 3 4 8 7 7 9 7 4 13 23 28 19 18 26 39 31 25 25 21 19 26 32 30
28 31 29 36 37 33 27 20 18 47 32 10 9 5 7 11 6 10 8 7 5 5 3 3 7 5 7 4 3 17 14 18 25 40 36 29 26 25 23 21 24 26 26 26
23 23 12 10 9 13 15 9 15 20 26 21 13 12 8 4 2 4 9 6 5 3 4 6 7 4 27 12 18 14 24 21 24 33 33 27 29 25 24 26 24 24 25 26
11 8 10 11 11 9 11 10 13 18 9 18 26 53 29 30 6 7 12 7 5 6 5 6 4 5 12 27 42 41 39 38 31 35 35 30 25 21 19 21 22 24 25 28
9 17 32 19 10 12 7 8 7 9 11 13 14 21 38 17 26 12 12 8 4 6 14 7 3 7 23 39 45 41 37 36 28 24 25 20 19 20 20 22 26 27 24 24
15 9 9 8 11 3 11 13 7 6 10 8 8 6 15 16 23 9 7 8 5 28 7 4 4 35 30 33 35 38 33 25 19 20 19 18 21 23 21 19 19 15 10 18
10 10 9 11 9 10 10 10 9 14 9 13 6 8 13 4 4 5 8 3 8 7 6 5 6 25 35 31 29 28 25 21 19 19 16 19 24 22 23 25 20 16 10 19
11 10 10 13 25 10 8 25 17 14 8 6 4 7 7 7 7 5 6 6 6 5 5 5 26 26 29 26 22 24 21 24 26 24 24 23 20 21 22 23 22 15 16 26
11 16 10 20 3 9 13 13 6 1 11 13 10 6 6 6 4 9 7 5 4 5 9 32 32 27 19 18 13 23 25 22 18 19 17 15 16 21 25 23 20 20 17 20
10 15 26 37 26 7 8 1 7 8 3 3 7 7 5 6 7 5 7 5 7 29 37 31 26 25 20 16 20 20 18 13 12 12 12 14 17 22 24 20 20 20 25 25
Wind_Direction_500mb
334 337 342 345 343 346 355 357 53 143 150 50 47 161 224 305 283 307 243 198 181 125 134 12 329 356 346 354 313 23 32 132 224 229 183 157 178 204 160 134 256 231 178 270
333 338 343 348 348 350 352 344 346 169 199 85 342 302 283 251 317 295 66 37 70 36 33 88 73 234 222 335 348 179 179 284 340 334 355 41 202 182 160 116 132 200 165 266
331 338 344 348 352 352 355 357 12 40 202 110 114 342 290 330 301 297 60 129 94 93 46 10 142 231 259 249 235 201 133 176 190 223 217 175 238 214 189 157 149 187 220 270
329 338 345 349 358 359 5 19 28 7 330 322 352 244 285 297 343 6 47 29 25 119 56 17 281 224 274 207 79 26 123 232 198 253 252 238 237 242 224 204 217 184 248 218
326 337 345 352 2 10 30 27 3 345 282 299 320 5 337 311 329 3 328 123 148 101 132 194 239 238 191 291 43 11 8 293 343 270 191 291 266 257 248 242 229 247 277 266
321 333 343 352 3 15 31 4 337 311 293 334 357 319 294 288 316 9 56 147 101 55 3 176 104 101 94 93 107 40 23 1 8 272 326 297 223 348 18 345 348 195 182 257
314 325 338 350 357 7 7 352 346 336 285 328 295 295 293 283 287 139 345 56 90 133 127 101 90 73 69 63 73 109 102 112 116 285 323 252 294 3 48 323 333 14 74 15
303 314 327 341 350 353 0 350 343 329 287 288 314 338 321 30 79 53 12 26 32 162 145 67 28 354 5 327 37 66 161 118 57 21 300 299 281 5 29 34 326 330 281 95
289 301 314 329 340 344 355 12 24 335 310 249 353 328 345 328 329 334 355 173 42 104 77 63 82 306 280 315 352 68 100 73 146 112 352 337 260 32 76 80 4 340 103 117
280 288 301 315 329 336 352 10 341 324 278 287 253 319 297 336 358 259 303 356 19 22 63 82 134 246 232 308 316 354 20 358 338 113 177 259 267 151 163 90 223 309 95 135
273 279 288 302 318 322 341 357 297 354 282 288 277 259 237 291 302 208 338 23 3 46 60 110 184 192 233 291 274 95 188 116 276 32 257 349 113 109 93 230 76 107 87 111
267 271 278 290 304 311 320 333 321 309 278 271 283 288 274 271 268 264 279 241 186 179 94 147 122 226 169 183 297 11 326 187 195 167 241 276 290 319 316 103 74 83 87 132
264 264 271 280 292 302 307 310 327 326 296 302 281 279 291 270 244 229 227 222 188 201 224 161 173 242 138 172 238 188 265 202 235 258 306 317 325 282 28 53 46 56 16 350
261 261 267 275 283 293 300 300 307 305 295 282 293 293 286 258 267 276 221 232 229 232 206 185 156 198 172 194 178 170 207 354 288 269 338 83 57 69 58 47 8 6 17 23
259 260 266 274 281 288 295 295 296 273 220 272 293 306 295 257 242 219 207 217 244 238 205 158 224 161 122 92 83 170 160 204 104 316 339 74 59 70 53 43 27 23 32 28
256 259 265 274 281 290 311 303 306 288 221 258 303 301 291 279 288 210 211 223 242 235 226 190 202 108 146 120 148 24 164 30 189 94 55 121 110 66 82 92 74 54 57 55
257 259 265 272 278 279 279 264 353 61 155 277 295 287 281 308 277 196 201 208 213 222 108 202 176 103 94 99 114 327 145 145 137 155 292 122 129 83 89 88 79 72 63 50
258 261 265 270 274 278 276 261 253 242 272 257 262 270 310 5 218 103 150 139 164 113 183 151 101 69 39 64 320 132 118 105 78 23 115 122 117 106 89 84 58 44 43 41
262 266 273 280 271 269 278 278 222 212 217 283 222 244 263 357 75 97 99 81 44 352 84 66 94 352 53 288 198 160 141 102 128 132 131 129 106 92 75 56 45 43 42 28
267 281 272 246 203 252 276 203 173 173 205 228 242 238 261 357 5 85 116 134 205 148 242 120 69 91 8 34 114 167 205 199 159 125 107 106 95 83 67 53 47 43 32 20
259 239 245 247 278 237 214 221 188 191 231 218 233 228 236 244 178 219 217 176 164 137 226 115 85 116 50 85 99 101 108 125 123 121 112 100 89 80 62 49 36 24 19 21
222 282 293 281 212 210 215 205 205 182 216 215 203 227 212 214 197 175 191 168 138 164 153 84 62 101 108 109 110 109 113 115 109 100 89 75 58 50 52 55 47 35 21 17
270 257 252 222 204 191 198 201 233 224 217 224 226 229 186 176 201 148 146 150 164 119 57 96 85 126 123 112 117 113 111 108 95 73 60 49 53 55 56 57 57 58 46 31
240 227 270 196 211 229 197 203 208 229 242 297 299 246 210 196 112 121 120 116 132 90 120 121 98 109 116 127 116 107 89 86 90 104 100 84 72 58 40 39 45 33 59 20
240 218 229 222 234 265 267 240 249 239 255 277 172 77 22 5 77 19 113 71 83 59 86 81 103 113 120 107 91 82 85 84 95 98 87 82 60 46 46 35 29 28 14 2
238 231 262 261 297 298 227 218 182 52 149 85 70 70 58 58 39 44 31 86 102 82 83 108 116 106 89 69 69 83 85 94 97 89 82 63 47 35 28 23 26 17 355 358
240 245 257 267 279 266 213 207 67 58 30 77 77 63 57 56 63 76 25 50 97 114 115 116 111 102 83 92 87 92 105 90 98 100 78 50 33 23 24 20 13 6 351 340
Wind_Speed_850mb
40 44 49 58 65 66 57 14 5 10 21 5 4 3 7 11 20 43 18 11 10 4 4 1 5 3 7 21 6 3 6 7 7 16 5 10 6 7 9 8 7 4 5 13
38 41 44 51 60 66 56 27 8 13 13 4 6 12 11 14 10 12 3 11 9 8 9 8 5 3 8 10 1 10 6 1 5 17 11 2 7 9 6 11 7 11 8 11
36 38 41 46 54 53 36 13 6 8 5 6 5 7 9 11 19 7 15 6 7 9 9 10 4 4 6 5 4 5 9 8 15 14 14 6 8 11 12 11 7 8 12 12
33 35 37 43 48 42 24 14 5 8 7 8 11 5 4 8 10 10 16 10 9 8 6 5 4 7 5 7 2 7 4 10 10 10 13 11 10 13 15 16 11 10 10 15
29 31 34 38 44 39 16 12 11 12 9 20 11 2 5 7 11 11 8 13 3 9 7 9 10 5 3 5 5 5 7 6 6 8 8 8 11 13 20 21 18 12 10 18
25 27 30 35 38 41 17 25 8 8 9 10 5 5 7 9 16 16 12 19 8 10 3 2 7 12 18 9 6 5 6 7 7 10 8 13 5 11 10 4 5 7 6 4
22 23 25 30 34 38 35 29 17 6 7 3 5 7 14 13 12 7 6 11 9 2 28 34 23 27 20 16 12 7 2 4 3 8 10 5 3 9 9 4 7 6 7 5
20 20 21 24 28 33 36 25 7 5 7 8 13 26 12 10 17 15 11 12 7 17 6 7 8 10 12 9 7 10 3 5 2 4 6 10 2 11 11 12 11 20 6 9
19 19 19 21 24 28 32 12 9 9 8 9 5 13 12 4 6 7 7 1 13 2 8 8 5 1 4 9 13 7 9 4 2 2 5 7 9 2 5 9 15 33 11 14
21 19 18 19 22 25 30 6 9 12 12 15 7 1 7 8 8 4 9 10 9 12 5 5 5 5 3 6 7 6 5 6 2 3 3 11 9 11 11 9 11 11 10 15
23 20 19 18 20 25 24 13 3 20 13 46 39 22 13 18 11 1 11 6 10 8 7 5 4 5 7 3 5 1 2 2 3 2 4 5 9 7 1 5 5 6 8 9
25 22 19 19 19 25 27 19 23 27 30 36 46 58 48 50 47 34 8 3 6 8 7 1 5 5 3 4 5 3 2 9 5 10 8 7 15 5 5 4 8 7 8 6
26 24 21 21 21 27 31 34 31 28 22 50 35 17 9 11 16 18 12 10 7 7 9 13 5 7 8 7 8 4 5 7 6 0 3 13 20 13 10 19 9 10 12 13
28 26 24 23 25 28 34 40 37 34 14 11 14 11 24 16 23 28 40 20 11 10 12 8 5 5 9 4 6 5 5 2 5 6 4 6 21 29 32 33 17 13 10 13
28 28 26 26 28 31 35 44 48 35 27 9 28 58 24 9 17 30 36 33 30 17 7 6 6 11 8 1 3 3 6 4 2 3 17 20 15 27 16 17 16 19 22 30
29 29 28 28 30 30 33 14 8 20 33 8 8 20 25 22 22 24 41 42 31 28 9 6 4 1 4 6 3 4 15 5 4 7 10 23 16 16 14 22 25 16 17 28
29 30 30 30 33 32 27 11 8 12 21 6 14 15 10 11 17 21 35 28 13 8 0 5 8 4 7 5 4 9 4 6 5 7 4 11 18 23 25 23 21 21 22 22
30 31 32 33 36 41 46 32 34 39 19 11 6 10 13 2 4 9 12 11 9 3 4 8 7 7 9 7 4 13 23 28 19 18 26 39 31 25 25 21 19 26 32 30
28 31 29 36 37 33 27 20 18 47 32 10 9 5 7 11 6 10 8 7 5 5 3 3 7 5 7 4 3 17 14 18 25 40 36 29 26 25 23 21 24 26 26 26
23 23 12 10 9 13 15 9 15 20 26 21 13 12 8 4 2 4 9 6 5 3 4 6 7 4 27 12 18 14 24 21 24 33 33 27 29 25 24 26 24 24 25 26
11 8 10 11 11 9 11 10 13 18 9 18 26 53 29 30 6 7 12 7 5 6 5 6 4 5 12 27 42 41 39 38 31 35 35 30 25 21 19 21 22 24 25 28
9 17 32 19 10 12 7 8 7 9 11 13 14 21 38 17 26 12 12 8 4 6 14 7 3 7 23 39 45 41 37 36 28 24 25 20 19 20 20 22 26 27 24 24
15 9 9 8 11 3 11 13 7 6 10 8 8 6 15 16 23 9 7 8 5 28 7 4 4 35 30 33 35 38 33 25 19 20 19 18 21 23 21 19 19 15 10 18
10 10 9 11 9 10 10 10 9 14 9 13 6 8 13 4 4 5 8 3 8 7 6 5 6 25 35 31 29 28 25 21 19 19 16 19 24 22 23 25 20 16 10 19
11 10 10 13 25 10 8 25 17 14 8 6 4 7 7 7 7 5 6 6 6 5 5 5 26 26 29 26 22 24 21 24 26 24 24 23 20 21 22 23 22 15 16 26
11 16 10 20 3 9 13 13 6 1 11 13 10 6 6 6 4 9 7 5 4 5 9 32 32 27 19 18 13 23 25 22 18 19 17 15 16 21 25 23 20 20 17 20
10 15 26 37 26 7 8 1 7 8 3 3 7 7 5 6 7 5 7 5 7 29 37 31 26 25 20 16 20 20 18 13 12 12 12 14 17 22 24 20 20 20 25 25
Wind_Direction_850mb
334 337 342 345 343 346 355 357 53 143 150 50 47 161 224 305 283 307 243 198 181 125 134 12 329 356 346 354 313 23 32 132 224 229 183 157 178 204 160 134 256 231 178 270
333 338 343 348 348 350 352 344 346 169 199 85 342 302 283 251 317 295 66 37 70 36 33 88 73 234 222 335 348 179 179 284 340 334 355 41 202 182 160 116 132 200 165 266
331 338 344 348 352 352 355 357 12 40 202 110 114 342 290 330 301 297 60 129 94 93 46 10 142 231 259 249 235 201 133 176 190 223 217 175 238 214 189 157 149 187 220 270
329 338 345 349 358 359 5 19 28 7 330 322 352 244 285 297 343 6 47 29 25 119 56 17 281 224 274 207 79 26 123 232 198 253 252 238 237 242 224 204 217 184 248 218
326 337 345 352 2 10 30 27 3 345 282 299 320 5 337 311 329 3 328 123 148 101 132 194 239 238 191 291 43 11 8 293 343 270 191 291 266 257 248 242 229 247 277 266
321 333 343 352 3 15 31 4 337 311 293 334 357 319 294 288 316 9 56 147 101 55 3 176 104 101 94 93 107 40 23 1 8 272 326 297 223 348 18 345 348 195 182 257
314 325 338 350 357 7 7 352 346 336 285 328 295 295 293 283 287 139 345 56 90 133 127 101 90 73 69 63 73 109 102 112 116 285 323 252 294 3 48 323 333 14 74 15
303 314 327 341 350 353 0 350 343 329 287 288 314 338 321 30 79 53 12 26 32 162 145 67 28 354 5 327 37 66 161 118 57 21 300 299 281 5 29 34 326 330 281 95
289 301 314 329 340 344 355 12 24 335 310 249 353 328 345 328 329 334 355 173 42 104 77 63 82 306 280 315 352 68 100 73 146 112 352 337 260 32 76 80 4 340 103 117
280 288 301 315 329 336 352 10 341 324 278 287 253 319 297 336 358 259 303 356 19 22 63 82 134 246 232 308 316 354 20 358 338 113 177 259 267 151 163 90 223 309 95 135
273 279 288 302 318 322 341 357 297 354 282 288 277 259 237 291 302 208 338 23 3 46 60 110 184 192 233 291 274 95 188 116 276 32 257 349 113 109 93 230 76 107 87 111
267 271 278 290 304 311 320 333 321 309 278 271 283 288 274 271 268 264 279 241 186 179 94 147 122 226 169 183 297 11 326 187 195 167 241 276 290 319 316 103 74 83 87 132
264 264 271 280 292 302 307 310 327 326 296 302 281 279 291 270 244 229 227 222 188 201 224 161 173 242 138 172 238 188 265 202 235 258 306 317 325 282 28 53 46 56 16 350
261 261 267 275 283 293 300 300 307 305 295 282 293 293 286 258 267 276 221 232 229 232 206 185 156 198 172 194 178 170 207 354 288 269 338 83 57 69 58 47 8 6 17 23
259 260 266 274 281 288 295 295 296 273 220 272 293 306 295 257 242 219 207 217 244 238 205 158 224 161 122 92 83 170 160 204 104 316 339 74 59 70 53 43 27 23 32 28
256 259 265 274 281 290 311 303 306 288 221 258 303 301 291 279 288 210 211 223 242 235 226 190 202 108 146 120 148 24 164 30 189 94 55 121 110 66 82 92 74 54 57 55
257 259 265 272 278 279 279 264 353 61 155 277 295 287 281 308 277 196 201 208 213 222 108 202 176 103 94 99 114 327 145 145 137 155 292 122 129 83 89 88 79 72 63 50
258 261 265 270 274 278 276 261 253 242 272 257 262 270 310 5 218 103 150 139 164 113 183 151 101 69 39 64 320 132 118 105 78 23 115 122 117 106 89 84 58 44 43 41
262 266 273 280 271 269 278 278 222 212 217 283 222 244 263 357 75 97 99 81 44 352 84 66 94 352 53 288 198 160 141 102 128 132 131 129 106 92 75 56 45 43 42 28
267 281 272 246 203 252 276 203 173 173 205 228 242 238 261 357 5 85 116 134 205 148 242 120 69 91 8 34 114 167 205 199 159 125 107 106 95 83 67 53 47 43 32 20
259 239 245 247 278 237 214 221 188 191 231 218 233 228 236 244 178 219 217 176 164 137 226 115 85 116 50 85 99 101 108 125 123 121 112 100 89 80 62 49 36 24 19 21
222 282 293 281 212 210 215 205 205 182 216 215 203 227 212 214 197 175 191 168 138 164 153 84 62 101 108 109 110 109 113 115 109 100 89 75 58 50 52 55 47 35 21 17
270 257 252 222 204 191 198 201 233 224 217 224 226 229 186 176 201 148 146 150 164 119 57 96 85 126 123 112 117 113 111 108 95 73 60 49 53 55 56 57 57 58 46 31
240 227 270 196 211 229 197 203 208 229 242 297 299 246 210 196 112 121 120 116 132 90 120 121 98 109 116 127 116 107 89 86 90 104 100 84 72 58 40 39 45 33 59 20
240 218 229 222 234 265 267 240 249 239 255 277 172 77 22 5 77 19 113 71 83 59 86 81 103 113 120 107 91 82 85 84 95 98 87 82 60 46 46 35 29 28 14 2
238 231 262 261 297 298 227 218 182 52 149 85 70 70 58 58 39 44 31 86 102 82 83 108 116 106 89 69 69 83 85 94 97 89 82 63 47 35 28 23 26 17 355 358
240 245 257 267 279 266 213 207 67 58 30 77 77 63 57 56 63 76 25 50 97 114 115 116 111 102 83 92 87 92 105 90 98 100 78 50 33 23 24 20 13 6 351 340